Weather History for KRDM - February, 2014

Change the Weather History Date:

Wednesday, February 19, 2014

  Actual Average Record
Temperature  
Mean Temperature 33 °F 36 °F  
Max Temperature 42 °F 48 °F 69 °F (1995)
Min Temperature 24 °F 24 °F -5 °F (2006)
Degree Days  
Heating Degree Days 32 29  
Month to date heating degree days 695 576  
Since 1 July heating degree days 4525 4416  
Cooling Degree Days 0 0  
Month to date cooling degree days 0 0  
Year to date cooling degree days 0 0  
Moisture  
Dew Point 22 °F    
Average Humidity 63    
Maximum Humidity 81    
Minimum Humidity 44    
Precipitation  
Precipitation T in 0.02 in 0.21 in (1993)
Month to date precipitation 1.15 0.45  
Year to date precipitation 1.67 1.42  
Sea Level Pressure  
Sea Level Pressure 30.11 in    
Wind  
Wind Speed 8 mph (SW)    
Max Wind Speed 25 mph    
Max Gust Speed 32 mph    
Visibility 8 miles    
Events Snow    
T = Trace of Precipitation, MM = Missing Value Source: NWS Daily Summary

Daily Weather History Graph

Daily Weather History Graph

Search for Another Location

Airport or City:

Trip Planner

Search our weather history database for the weather conditions in past years. The results will help you decide how hot, cold, wet, or windy it might be!

Date:

Astronomy

Feb. 19, 2014 Rise Set
Actual Time 6:57 AM PST 5:39 PM PST
Civil Twilight 6:28 AM PST 6:09 PM PST
Nautical Twilight 5:54 AM PST 6:42 PM PST
Astronomical Twilight 5:21 AM PST 7:16 PM PST
Moon 10:51 PM PST (2/19) 8:55 AM PST (2/19)
Length of Visible Light 11h 40m
Length of Day
10h 41m
Waning Gibbous, 79% of the Moon is Illuminated
Feb 19
Waning Gibbous
Feb 22
Last Quarter
Mar 1
New
Mar 8
First Quarter
Mar 16
Full

Hourly Weather History & Observations

Time (PST) Temp. Windchill Dew Point Humidity Pressure Visibility Wind Dir Wind Speed Gust Speed Precip Events Conditions
12:56 AM 30.9 °F 22.8 °F 21.0 °F 67% 29.99 in 10.0 mi WNW 9.2 mph - N/A   Clear
1:56 AM 30.0 °F 21.7 °F 21.0 °F 69% 30.00 in 10.0 mi West 9.2 mph - N/A   Clear
2:56 AM 28.0 °F 22.8 °F 19.9 °F 72% 30.01 in 10.0 mi SW 4.6 mph - N/A   Clear
3:56 AM 27.0 °F 19.5 °F 19.0 °F 72% 30.01 in 10.0 mi South 6.9 mph - N/A   Clear
4:56 AM 25.0 °F 18.1 °F 19.0 °F 78% 30.04 in 10.0 mi SSE 5.8 mph - N/A   Partly Cloudy
5:56 AM 28.9 °F 21.9 °F 19.9 °F 69% 30.06 in 9.0 mi SSW 6.9 mph - N/A   Overcast
6:16 AM 28.9 °F 19.2 °F 21.9 °F 75% 30.03 in 2.5 mi SW 11.5 mph - 0.00 in Snow Light Snow
6:23 AM 28.0 °F 18.6 °F 24.1 °F 85% 30.03 in 0.8 mi SW 10.4 mph - 0.00 in Snow Light Snow
6:31 AM 28.9 °F 20.4 °F 24.1 °F 82% 30.03 in 2.0 mi SW 9.2 mph - 0.00 in Snow Light Snow
6:47 AM 28.0 °F 20.0 °F 24.1 °F 85% 30.03 in 1.5 mi SSW 8.1 mph - 0.00 in Snow Light Snow
6:52 AM 28.4 °F 20.4 °F 23.0 °F 80% 30.03 in 3.0 mi South 8.1 mph - 0.00 in Snow Light Snow
6:56 AM 28.0 °F 20.8 °F 23.0 °F 81% 30.09 in 6.0 mi SSW 6.9 mph - 0.00 in Snow Light Snow
7:05 AM 28.0 °F 20.0 °F 21.9 °F 78% 30.04 in 10.0 mi South 8.1 mph - 0.00 in   Scattered Clouds
7:56 AM 28.9 °F 21.9 °F 24.1 °F 82% 30.11 in 10.0 mi SSW 6.9 mph - 0.00 in   Clear
8:56 AM 32.0 °F 28.7 °F 23.0 °F 69% 30.13 in 10.0 mi SW 3.5 mph - N/A   Clear
9:56 AM 35.1 °F 30.1 °F 24.1 °F 64% 30.14 in 10.0 mi WNW 5.8 mph - N/A   Mostly Cloudy
10:56 AM 37.0 °F 33.3 °F 23.0 °F 57% 30.15 in 10.0 mi Variable 4.6 mph - N/A   Overcast
11:56 AM 37.0 °F 26.2 °F 27.0 °F 67% 30.16 in 10.0 mi WNW 21.9 mph 27.6 mph N/A   Clear
12:56 PM 39.9 °F 31.1 °F 24.1 °F 53% 30.15 in 10.0 mi WNW 17.3 mph - N/A   Clear
1:56 PM 39.0 °F 32.3 °F 21.0 °F 49% 30.16 in 10.0 mi West 10.4 mph - N/A   Partly Cloudy
2:56 PM 39.9 °F 31.1 °F 19.9 °F 45% 30.16 in 10.0 mi West 17.3 mph 24.2 mph N/A   Mostly Cloudy
3:56 PM 39.9 °F 32.9 °F 19.9 °F 45% 30.17 in 10.0 mi WNW 11.5 mph 16.1 mph N/A   Mostly Cloudy
4:56 PM 37.9 °F 29.2 °F 21.0 °F 51% 30.17 in 10.0 mi West 15.0 mph 24.2 mph N/A   Clear
5:56 PM 36.0 °F 29.0 °F 21.0 °F 55% 30.18 in 10.0 mi West 9.2 mph 20.7 mph N/A   Scattered Clouds
6:56 PM 35.1 °F 32.2 °F 21.0 °F 57% 30.20 in 10.0 mi Variable 3.5 mph - N/A   Clear
7:56 PM 32.0 °F 27.5 °F 21.9 °F 66% 30.20 in 10.0 mi SE 4.6 mph - N/A   Overcast
8:56 PM 34.0 °F 27.2 °F 23.0 °F 64% 30.21 in 10.0 mi SW 8.1 mph - N/A   Mostly Cloudy
9:56 PM 32.0 °F 26.4 °F 24.1 °F 73% 30.22 in 10.0 mi SSE 5.8 mph - N/A   Overcast
10:56 PM 30.0 °F 26.5 °F 24.1 °F 79% 30.22 in 10.0 mi SE 3.5 mph - N/A   Overcast
11:56 PM 30.9 °F - 23.0 °F 72% 30.22 in 10.0 mi Calm Calm - N/A   Mostly Cloudy